This is the latest recevied weather packets stored in our database for station/object KG5WBN. If no packets are shown the sender has not sent any weather packets the latest 10 day(s).
| Time | Temp. | Humidity | Pressure | Rain* | Wind** | Luminosity | Snow |
|---|---|---|---|---|---|---|---|
| 1777687843 | 18.33° C | 99% | 1010.2 hPa | 0 mm | - | 0 W/m² | - |
| 1777687540 | 18.33° C | 99% | 1010.8 hPa | 0 mm | - | 0 W/m² | - |
| 1777687237 | 18.33° C | 99% | 1010.2 hPa | 0 mm | - | 0 W/m² | - |
| 1777686935 | 18.33° C | 99% | 1010.5 hPa | 0 mm | - | 0 W/m² | - |
| 1777686631 | 18.33° C | 99% | 1010.5 hPa | 0 mm | - | 0 W/m² | - |
| 1777686328 | 18.33° C | 99% | 1010.2 hPa | 0 mm | - | 0 W/m² | - |
| 1777686025 | 18.89° C | 99% | 1010.5 hPa | 1.27 mm | - | 0 W/m² | - |
| 1777685721 | 18.89° C | 99% | 1011.2 hPa | 3.05 mm | - | 0 W/m² | - |
| 1777685417 | 18.89° C | 99% | 1011.5 hPa | 3.05 mm | - | 0 W/m² | - |
| 1777685115 | 18.89° C | 99% | 1011.2 hPa | 3.05 mm | - | 0 W/m² | - |
| 1777684812 | 18.89° C | 99% | 1010.8 hPa | 9.65 mm | - | 0 W/m² | - |
| 1777684508 | 18.89° C | 99% | 1010.8 hPa | 4.32 mm | - | 0 W/m² | - |
| 1777684205 | 18.89° C | 99% | 1011.2 hPa | 1.27 mm | - | 0 W/m² | - |
| 1777683903 | 18.89° C | 99% | 1011.2 hPa | 0 mm | - | 0 W/m² | - |
| 1777683598 | 18.89° C | 99% | 1011.2 hPa | 0 mm | - | 0 W/m² | - |
| 1777683296 | 18.89° C | 99% | 1011.5 hPa | 0 mm | - | 0 W/m² | - |
| 1777682994 | 18.89° C | 99% | 1010.8 hPa | 0 mm | - | 0 W/m² | - |
| 1777682689 | 18.89° C | 99% | 1010.5 hPa | 0 mm | - | 0 W/m² | - |
| 1777682387 | 18.89° C | 99% | 1010.8 hPa | 1.78 mm | - | 0 W/m² | - |
| 1777682084 | 18.89° C | 99% | 1010.5 hPa | 3.05 mm | - | 0 W/m² | - |
| 1777681780 | 18.89° C | 99% | 1010.8 hPa | 1.27 mm | - | 0 W/m² | - |
| 1777681478 | 18.89° C | 99% | 1010.8 hPa | 4.83 mm | - | 0 W/m² | - |
| 1777681175 | 18.89° C | 99% | 1010.5 hPa | 8.89 mm | - | 0 W/m² | - |
| 1777680872 | 18.89° C | 99% | 1010.5 hPa | 7.87 mm | - | 0 W/m² | - |
| 1777680570 | 18.89° C | 99% | 1010.5 hPa | 4.83 mm | - | 0 W/m² | - |
* Rain latest hour (hover to see other rain measurements)
** Current wind speed in m/s (hover to see current wind gust speed)